EZY81C EHAM-EGKK

Flight info

Callsign EZY81C
Flight time 0h 50m
Altitude 24000
Route IDRID L980 ABNED Z344 AMRIV Q63 ARREK Y4 TEBRA
Aircraft A20N/M-SDE2E3FGHIRWXY/LB1

Departure

Time 2026-05-06 21:35
Airport Amsterdam Airport Schiphol (EHAM)

Arrival

Time 2026-05-06 22:25
Airport London Gatwick Airport (EGKK)
Time Latitude Longitude Altitude Speed Heading
2026-05-06 21:07 52.30986 4.75354 -3 ft 0 kts 151°
2026-05-06 21:21 52.30995 4.75346 -3 ft 3 kts 147°
2026-05-06 21:22 52.30999 4.75341 -3 ft 0 kts 139°
2026-05-06 21:22 52.31001 4.75339 -3 ft 1 kts 135°
2026-05-06 21:22 52.31008 4.75325 -2 ft 3 kts 121°
2026-05-06 21:22 52.31016 4.75292 -2 ft 3 kts 94°
2026-05-06 21:23 52.31014 4.75259 -3 ft 0 kts 59°
2026-05-06 21:24 52.31015 4.75260 -3 ft 1 kts 56°
2026-05-06 21:25 52.31025 4.75272 -3 ft 3 kts 36°
2026-05-06 21:25 52.31054 4.75298 -2 ft 6 kts 29°
2026-05-06 21:25 52.31098 4.75359 0 ft 12 kts 47°
2026-05-06 21:25 52.31163 4.75431 2 ft 12 kts
2026-05-06 21:26 52.31244 4.75430 6 ft 14 kts 347°
2026-05-06 21:26 52.31363 4.75415 7 ft 18 kts 356°
2026-05-06 21:26 52.31484 4.75398 10 ft 16 kts 340°
2026-05-06 21:26 52.31505 4.75227 9 ft 18 kts 266°
2026-05-06 21:27 52.31497 4.74963 13 ft 31 kts 266°
2026-05-06 21:27 52.31493 4.74856 13 ft 4 kts 267°
2026-05-06 21:27 52.31489 4.74729 14 ft 17 kts 266°
2026-05-06 21:27 52.31482 4.74516 17 ft 20 kts 267°
2026-05-06 21:28 52.31477 4.74262 14 ft 24 kts 280°
2026-05-06 21:28 52.31599 4.74154 16 ft 22 kts
2026-05-06 21:28 52.31753 4.74170 14 ft 24 kts
2026-05-06 21:28 52.31923 4.74185 11 ft 24 kts
2026-05-06 21:29 52.32038 4.74063 13 ft 22 kts 276°
2026-05-06 21:29 52.32045 4.73805 19 ft 26 kts 275°
2026-05-06 21:29 52.32065 4.73432 13 ft 38 kts 288°
2026-05-06 21:29 52.32257 4.73121 1 ft 41 kts 321°
2026-05-06 21:30 52.32489 4.72837 -4 ft 40 kts 315°
2026-05-06 21:30 52.32633 4.72592 -2 ft 25 kts 320°
2026-05-06 21:30 52.32749 4.72398 -4 ft 10 kts 311°
2026-05-06 21:30 52.32770 4.72357 0 ft 16 kts 309°
2026-05-06 21:31 52.32898 4.72118 -3 ft 33 kts 312°
2026-05-06 21:31 52.33047 4.71840 1 ft 32 kts 312°
2026-05-06 21:31 52.33154 4.71572 8 ft 23 kts 270°
2026-05-06 21:31 52.33058 4.71384 12 ft 22 kts 222°
2026-05-06 21:32 52.32937 4.71207 14 ft 23 kts 221°
2026-05-06 21:32 52.32933 4.70886 14 ft 0 kts
2026-05-06 21:34 52.32947 4.70887 14 ft 17 kts
2026-05-06 21:34 52.33367 4.70925 15 ft 100 kts
2026-05-06 21:34 52.34294 4.71020 92 ft 158 kts
2026-05-06 21:35 52.35455 4.71136 722 ft 176 kts
2026-05-06 21:35 52.36773 4.71247 1348 ft 203 kts
2026-05-06 21:35 52.38261 4.71352 2111 ft 221 kts
2026-05-06 21:35 52.39841 4.71445 2927 ft 233 kts
2026-05-06 21:36 52.41512 4.71591 3676 ft 248 kts
2026-05-06 21:36 52.43235 4.71805 4503 ft 251 kts
2026-05-06 21:36 52.44996 4.72024 4875 ft 256 kts
2026-05-06 21:36 52.46774 4.72226 5070 ft 257 kts
2026-05-06 21:37 52.48570 4.72412 5624 ft 261 kts
2026-05-06 21:37 52.50379 4.72591 6709 ft 258 kts
2026-05-06 21:37 52.52190 4.72776 7621 ft 265 kts
2026-05-06 21:37 52.54046 4.72966 8393 ft 274 kts
2026-05-06 21:38 52.55954 4.72853 9329 ft 278 kts 345°
2026-05-06 21:38 52.57684 4.71458 10174 ft 282 kts 320°
2026-05-06 21:38 52.58974 4.68860 10600 ft 303 kts 296°
2026-05-06 21:38 52.59530 4.65468 10943 ft 323 kts 272°
2026-05-06 21:39 52.59185 4.61773 11611 ft 331 kts 249°
2026-05-06 21:39 52.57975 4.58539 12447 ft 338 kts 228°
2026-05-06 21:39 52.56185 4.56006 13258 ft 344 kts 218°
2026-05-06 21:39 52.54278 4.53609 14115 ft 344 kts 220°
2026-05-06 21:40 52.52437 4.51078 14918 ft 346 kts 223°
2026-05-06 21:40 52.50666 4.48369 15588 ft 351 kts 226°
2026-05-06 21:40 52.48933 4.45521 16291 ft 355 kts 227°
2026-05-06 21:40 52.47209 4.42594 17046 ft 356 kts 227°
2026-05-06 21:41 52.45488 4.39639 17825 ft 358 kts 228°
2026-05-06 21:41 52.43755 4.36658 18419 ft 365 kts 228°
2026-05-06 21:41 52.41994 4.33637 19038 ft 367 kts 227°
2026-05-06 21:41 52.40221 4.30606 19683 ft 370 kts 227°
2026-05-06 21:42 52.38456 4.27596 20310 ft 372 kts 227°
2026-05-06 21:42 52.36653 4.24524 20881 ft 376 kts 227°
2026-05-06 21:42 52.34824 4.21412 21474 ft 379 kts 227°
2026-05-06 21:42 52.32992 4.18301 22093 ft 382 kts 227°
2026-05-06 21:43 52.31170 4.15114 22668 ft 385 kts 231°
2026-05-06 21:43 52.29504 4.11656 23227 ft 388 kts 233°
2026-05-06 21:43 52.27846 4.08157 23734 ft 392 kts 233°
2026-05-06 21:43 52.26168 4.04627 23915 ft 393 kts 233°
2026-05-06 21:44 52.24492 4.01113 23985 ft 393 kts 233°
2026-05-06 21:44 52.22808 3.97592 23988 ft 393 kts 233°
2026-05-06 21:44 52.21127 3.94085 23988 ft 392 kts 233°
2026-05-06 21:44 52.19450 3.90593 23988 ft 391 kts 233°
2026-05-06 21:45 52.17769 3.87093 23988 ft 394 kts 233°
2026-05-06 21:45 52.16083 3.83590 23989 ft 392 kts 233°
2026-05-06 21:45 52.14406 3.80111 23987 ft 390 kts 233°
2026-05-06 21:45 52.12749 3.76678 23985 ft 392 kts 233°
2026-05-06 21:46 52.11056 3.73174 23981 ft 392 kts 233°
2026-05-06 21:46 52.09374 3.69699 23981 ft 388 kts 233°
2026-05-06 21:46 52.07696 3.66237 23981 ft 391 kts 232°
2026-05-06 21:46 52.06007 3.62754 23983 ft 392 kts 233°
2026-05-06 21:47 52.04317 3.59279 23982 ft 390 kts 233°
2026-05-06 21:47 52.02638 3.55828 23975 ft 391 kts 233°
2026-05-06 21:47 52.00963 3.52389 23975 ft 394 kts 232°
2026-05-06 21:47 51.99264 3.48909 23970 ft 391 kts 232°
2026-05-06 21:48 51.97358 3.45765 23980 ft 393 kts 221°
2026-05-06 21:48 51.95216 3.42977 23980 ft 395 kts 219°
2026-05-06 21:48 51.93027 3.40285 23976 ft 394 kts 219°
2026-05-06 21:48 51.90844 3.37635 23977 ft 390 kts 219°
2026-05-06 21:49 51.88664 3.34994 23978 ft 393 kts 219°
2026-05-06 21:49 51.86465 3.32329 23977 ft 397 kts 218°
2026-05-06 21:49 51.84258 3.29660 23985 ft 394 kts 219°
2026-05-06 21:49 51.82073 3.27020 23986 ft 391 kts 218°
2026-05-06 21:50 51.79884 3.24374 23984 ft 396 kts 218°
2026-05-06 21:50 51.77674 3.21704 23980 ft 396 kts 218°
2026-05-06 21:50 51.75628 3.18864 23977 ft 391 kts 229°
2026-05-06 21:50 51.74045 3.15293 23983 ft 391 kts 243°
2026-05-06 21:51 51.73012 3.11218 23984 ft 394 kts 253°
2026-05-06 21:51 51.72367 3.06955 23992 ft 389 kts 259°
2026-05-06 21:51 51.71924 3.02668 23991 ft 387 kts 262°
2026-05-06 21:51 51.71555 2.98321 23989 ft 393 kts 262°
2026-05-06 21:52 51.71200 2.93950 23991 ft 393 kts 262°
2026-05-06 21:52 51.70842 2.89592 23993 ft 391 kts 262°
2026-05-06 21:52 51.70477 2.85252 23993 ft 389 kts 262°
2026-05-06 21:52 51.70104 2.80909 23994 ft 393 kts 262°
2026-05-06 21:53 51.69723 2.76533 23994 ft 395 kts 262°
2026-05-06 21:53 51.69340 2.72161 23992 ft 392 kts 262°
2026-05-06 21:53 51.68958 2.67826 23996 ft 391 kts 262°
2026-05-06 21:53 51.68575 2.63492 23996 ft 391 kts 262°
2026-05-06 21:54 51.68187 2.59143 23996 ft 392 kts 262°
2026-05-06 21:54 51.67801 2.54830 23997 ft 395 kts 262°
2026-05-06 21:54 51.67408 2.50480 23999 ft 391 kts 262°
2026-05-06 21:54 51.67017 2.46164 24000 ft 390 kts 262°
2026-05-06 21:55 51.66623 2.41821 24002 ft 392 kts 262°
2026-05-06 21:55 51.66228 2.37482 24001 ft 394 kts 261°
2026-05-06 21:55 51.65829 2.33101 24001 ft 394 kts 261°
2026-05-06 21:55 51.65429 2.28741 24003 ft 392 kts 261°
2026-05-06 21:56 51.65030 2.24399 23869 ft 391 kts 261°
2026-05-06 21:56 51.64631 2.20074 23473 ft 389 kts 261°
2026-05-06 21:56 51.64232 2.15768 22922 ft 386 kts 261°
2026-05-06 21:56 51.63835 2.11508 22322 ft 383 kts 261°
2026-05-06 21:57 51.63443 2.07314 22066 ft 376 kts 261°
2026-05-06 21:57 51.63049 2.03125 22009 ft 382 kts 261°
2026-05-06 21:57 51.62650 1.98878 22007 ft 384 kts 261°
2026-05-06 21:57 51.62249 1.94645 22007 ft 381 kts 261°
2026-05-06 21:58 51.61850 1.90441 21858 ft 380 kts 261°
2026-05-06 21:58 51.61449 1.86238 21417 ft 379 kts 261°
2026-05-06 21:58 51.61048 1.82060 20895 ft 376 kts 261°
2026-05-06 21:58 51.60649 1.77910 20316 ft 374 kts 262°
2026-05-06 21:59 51.60251 1.73791 19754 ft 371 kts 262°
2026-05-06 21:59 51.59855 1.69711 19227 ft 367 kts 262°
2026-05-06 21:59 51.59465 1.65706 18651 ft 366 kts 262°
2026-05-06 21:59 51.59064 1.61675 18045 ft 365 kts 261°
2026-05-06 22:00 51.58453 1.57750 17503 ft 361 kts 248°
2026-05-06 22:00 51.57119 1.54342 16911 ft 361 kts 229°
2026-05-06 22:00 51.55209 1.51726 16314 ft 361 kts 219°
2026-05-06 22:00 51.53206 1.49327 15759 ft 359 kts 218°
2026-05-06 22:01 51.51207 1.46948 15232 ft 355 kts 218°
2026-05-06 22:01 51.49234 1.44577 14724 ft 352 kts 218°
2026-05-06 22:01 51.47286 1.42207 14228 ft 349 kts 218°
2026-05-06 22:01 51.45359 1.39849 14063 ft 351 kts 218°
2026-05-06 22:02 51.43415 1.37466 14012 ft 352 kts 218°
2026-05-06 22:02 51.41464 1.35107 14005 ft 351 kts 218°
2026-05-06 22:02 51.39505 1.32788 13832 ft 349 kts 217°
2026-05-06 22:02 51.37546 1.30481 13401 ft 348 kts 217°
2026-05-06 22:03 51.35628 1.28222 12870 ft 346 kts 218°
2026-05-06 22:03 51.33697 1.25946 12338 ft 344 kts 218°
2026-05-06 22:03 51.31780 1.23684 11814 ft 341 kts 218°
2026-05-06 22:03 51.29879 1.21442 11296 ft 338 kts 218°
2026-05-06 22:04 51.27990 1.19216 10804 ft 336 kts 218°
2026-05-06 22:04 51.26114 1.17007 10325 ft 334 kts 217°
2026-05-06 22:04 51.24258 1.14824 10091 ft 331 kts 217°
2026-05-06 22:04 51.22388 1.12625 10020 ft 334 kts 217°
2026-05-06 22:05 51.20518 1.10431 10013 ft 333 kts 217°
2026-05-06 22:05 51.18648 1.08239 10014 ft 333 kts 217°
2026-05-06 22:05 51.16789 1.06061 10015 ft 333 kts 217°
2026-05-06 22:05 51.14923 1.03878 10016 ft 331 kts 217°
2026-05-06 22:06 51.13110 1.01761 10015 ft 314 kts 217°
2026-05-06 22:06 51.11400 0.99767 10015 ft 296 kts 218°
2026-05-06 22:06 51.09770 0.97866 9829 ft 287 kts 218°
2026-05-06 22:06 51.08168 0.95998 9388 ft 285 kts 217°
2026-05-06 22:07 51.06596 0.94074 8966 ft 283 kts 224°
2026-05-06 22:07 51.05353 0.91740 8562 ft 279 kts 238°
2026-05-06 22:07 51.04472 0.88998 8144 ft 278 kts 246°
2026-05-06 22:07 51.03661 0.86215 7727 ft 277 kts 245°
2026-05-06 22:08 51.02844 0.83454 7338 ft 275 kts 245°
2026-05-06 22:08 51.02304 0.81641 7127 ft 273 kts 245°
2026-05-06 22:08 51.01490 0.78917 7003 ft 275 kts 245°
2026-05-06 22:08 51.00666 0.76165 6991 ft 275 kts 245°
2026-05-06 22:09 50.99844 0.73423 6993 ft 275 kts 245°
2026-05-06 22:09 50.99021 0.70679 6994 ft 275 kts 245°
2026-05-06 22:09 50.98196 0.67930 6991 ft 275 kts 245°
2026-05-06 22:09 50.97373 0.65195 6993 ft 275 kts 245°
2026-05-06 22:10 50.96546 0.62450 6992 ft 275 kts 245°
2026-05-06 22:10 50.95721 0.59713 6993 ft 275 kts 245°
2026-05-06 22:10 50.94894 0.56977 6989 ft 275 kts 245°
2026-05-06 22:10 50.94065 0.54234 6991 ft 275 kts 244°
2026-05-06 22:11 50.93238 0.51503 6991 ft 275 kts 245°
2026-05-06 22:11 50.92411 0.48773 6992 ft 274 kts 244°
2026-05-06 22:11 50.91665 0.46130 6991 ft 259 kts 254°
2026-05-06 22:11 50.91478 0.43412 6989 ft 241 kts 276°
2026-05-06 22:12 50.91869 0.40866 6994 ft 241 kts 287°
2026-05-06 22:12 50.92346 0.38324 6991 ft 239 kts 287°
2026-05-06 22:12 50.92810 0.35796 7000 ft 239 kts 286°
2026-05-06 22:12 50.93272 0.33259 6999 ft 240 kts 286°
2026-05-06 22:13 50.93734 0.30723 6998 ft 240 kts 286°
2026-05-06 22:13 50.94198 0.28181 6997 ft 239 kts 287°
2026-05-06 22:13 50.94839 0.25756 6999 ft 239 kts 300°
2026-05-06 22:13 50.95799 0.23623 6902 ft 237 kts 309°
2026-05-06 22:14 50.96827 0.21575 6611 ft 238 kts 308°
2026-05-06 22:14 50.97851 0.19509 6270 ft 238 kts 308°
2026-05-06 22:14 50.98866 0.17446 5968 ft 236 kts 308°
2026-05-06 22:14 50.99873 0.15397 5669 ft 234 kts 308°
2026-05-06 22:15 51.00870 0.13364 5383 ft 232 kts 307°
2026-05-06 22:15 51.01634 0.11136 5062 ft 230 kts 287°
2026-05-06 22:15 51.01854 0.08628 4741 ft 230 kts 273°
2026-05-06 22:15 51.01932 0.06092 4412 ft 230 kts 274°
2026-05-06 22:16 51.02021 0.03556 4103 ft 229 kts 274°
2026-05-06 22:16 51.02115 0.01050 4006 ft 230 kts 274°
2026-05-06 22:16 51.02212 -0.01499 3997 ft 230 kts 274°
2026-05-06 22:16 51.02307 -0.04000 4002 ft 230 kts 275°
2026-05-06 22:17 51.02401 -0.06533 3998 ft 230 kts 274°
2026-05-06 22:17 51.02497 -0.09074 4000 ft 231 kts 274°
2026-05-06 22:17 51.02589 -0.11611 4002 ft 230 kts 274°
2026-05-06 22:17 51.02682 -0.14146 3997 ft 230 kts 274°
2026-05-06 22:18 51.02774 -0.16688 3998 ft 230 kts 274°
2026-05-06 22:18 51.02866 -0.19223 3960 ft 229 kts 274°
2026-05-06 22:18 51.02956 -0.21740 3725 ft 228 kts 274°
2026-05-06 22:18 51.03045 -0.24260 3425 ft 229 kts 274°
2026-05-06 22:19 51.03133 -0.26780 3121 ft 228 kts 274°
2026-05-06 22:19 51.03232 -0.29278 3007 ft 229 kts 279°
2026-05-06 22:19 51.03834 -0.31565 2998 ft 222 kts 311°
2026-05-06 22:19 51.04876 -0.33202 2989 ft 198 kts 319°
2026-05-06 22:20 51.05864 -0.34637 3001 ft 188 kts 319°
2026-05-06 22:20 51.06812 -0.36006 2999 ft 184 kts 319°
2026-05-06 22:20 51.07752 -0.37378 2968 ft 182 kts 319°
2026-05-06 22:20 51.08669 -0.38735 2677 ft 180 kts 319°
2026-05-06 22:21 51.09607 -0.40044 2510 ft 180 kts 331°
2026-05-06 22:21 51.10808 -0.40415 2500 ft 179 kts 12°
2026-05-06 22:21 51.11854 -0.39432 2499 ft 179 kts 52°
2026-05-06 22:21 51.12292 -0.37585 2505 ft 181 kts 77°
2026-05-06 22:22 51.12543 -0.35613 2185 ft 180 kts 76°
2026-05-06 22:22 51.12799 -0.33746 1921 ft 165 kts 76°
2026-05-06 22:22 51.13033 -0.32028 1693 ft 153 kts 75°
2026-05-06 22:22 51.13254 -0.30425 1480 ft 143 kts 76°
2026-05-06 22:23 51.13457 -0.28934 1293 ft 137 kts 75°
2026-05-06 22:23 51.13665 -0.27431 1099 ft 137 kts 76°
2026-05-06 22:23 51.13869 -0.25945 903 ft 138 kts 77°
2026-05-06 22:23 51.14072 -0.24461 719 ft 138 kts 77°
2026-05-06 22:24 51.14276 -0.22947 536 ft 139 kts 78°
2026-05-06 22:24 51.14475 -0.21445 343 ft 139 kts 79°
2026-05-06 22:24 51.14688 -0.19946 220 ft 138 kts 79°
2026-05-06 22:24 51.14870 -0.18624 201 ft 102 kts 77°
2026-05-06 22:25 51.14990 -0.17759 212 ft 56 kts 79°
2026-05-06 22:25 51.15043 -0.17426 211 ft 28 kts 69°
2026-05-06 22:25 51.15143 -0.17209 205 ft 2 kts
2026-05-06 22:26 51.15151 -0.17211 205 ft 2 kts 350°
2026-05-06 22:26 51.15179 -0.17238 209 ft 8 kts 323°
2026-05-06 22:27 51.15233 -0.17307 214 ft 12 kts 322°
2026-05-06 22:27 51.15310 -0.17359 210 ft 13 kts 350°
2026-05-06 22:27 51.15406 -0.17389 212 ft 15 kts 347°
2026-05-06 22:27 51.15517 -0.17428 215 ft 17 kts 347°
2026-05-06 22:28 51.15598 -0.17346 207 ft 15 kts 78°
2026-05-06 22:28 51.15616 -0.17232 208 ft 12 kts 75°
2026-05-06 22:28 51.15639 -0.17092 206 ft 14 kts 77°
2026-05-06 22:28 51.15634 -0.16935 205 ft 15 kts 135°
2026-05-06 22:29 51.15583 -0.16897 213 ft 5 kts 167°
2026-05-06 22:29 51.15574 -0.16894 208 ft 0 kts 169°